Theta_e
301 301 300 299 298 297 296 296 296 296 296 293 292 292 292 292 292 291 289 288 289 289 288 288 288 288 288 288 288 288 288 288 288 288 287 287 286 286 286 285 284 283 283 282 283 283 282 282 281 282 282 282 281 282 282 282 283 283 284 283 283 282 283 280 279 278 280 282 282 281 281 280 279 280 280 280 280 281 281 281 281 280 280 280 280
302 301 300 299 298 297 295 296 296 296 294 292 291 291 290 290 290 289 288 288 288 288 288 288 287 287 288 288 287 287 287 287 287 287 286 285 285 286 284 283 282 282 282 281 282 283 282 281 280 280 281 281 281 281 281 281 281 280 280 280 280 281 282 279 279 279 277 279 279 281 279 280 277 281 279 279 279 280 280 280 281 280 279 279 279
302 301 300 299 298 297 296 295 295 293 291 290 290 289 289 290 289 288 288 288 288 288 288 288 287 287 287 287 287 286 286 286 286 285 285 284 284 284 284 283 282 281 281 281 281 281 281 280 279 279 281 279 280 280 280 280 280 279 279 280 279 279 279 281 279 278 278 278 280 278 278 279 278 278 280 280 280 280 279 279 280 280 280 279 278
301 300 299 298 297 296 296 296 294 291 290 289 289 288 288 288 288 288 288 287 287 287 288 287 287 287 286 286 286 285 285 285 285 285 284 284 283 283 283 283 282 282 281 281 281 280 280 279 278 279 279 279 279 279 279 280 279 280 279 279 279 279 279 279 279 278 278 278 278 278 280 277 278 280 280 280 279 279 279 279 279 279 279 279 278
300 299 297 296 296 295 294 295 292 290 289 288 288 287 287 287 287 287 287 286 287 286 287 287 286 286 286 285 285 284 284 284 284 284 284 284 283 283 283 282 282 282 281 281 281 280 279 278 278 279 279 278 279 278 279 278 279 279 279 279 279 279 279 279 278 279 278 277 278 279 278 277 278 278 279 277 278 278 278 277 278 278 278 278 279
299 297 297 296 294 293 293 293 291 289 289 287 287 287 287 286 286 286 286 286 286 286 286 285 285 285 285 285 284 284 284 284 284 284 283 283 283 283 282 282 282 281 280 280 280 280 279 278 278 279 279 278 278 278 279 278 279 279 279 279 279 279 279 279 279 278 278 277 277 277 278 277 277 278 278 278 277 276 276 277 277 277 277 276 277
297 297 296 295 294 293 292 291 289 287 287 286 287 286 286 286 286 285 286 285 285 285 285 285 285 285 285 284 284 284 284 284 284 283 283 283 282 282 281 281 280 280 279 279 279 279 279 279 279 279 279 279 279 279 279 278 279 279 279 279 279 279 278 278 278 277 277 277 277 277 277 278 277 276 278 278 277 277 275 275 275 276 276 276 275
296 296 295 294 293 292 291 290 288 288 287 286 286 285 285 285 285 285 285 284 284 284 284 284 284 285 284 284 284 284 284 283 283 283 283 282 282 281 281 280 279 279 279 278 278 278 279 279 279 279 279 279 280 280 279 278 279 278 279 279 279 278 278 278 278 277 277 277 277 276 277 277 277 278 278 277 276 276 277 275 273 274 274 276 275
296 295 294 293 293 292 291 289 288 288 287 286 285 284 284 284 284 284 284 284 284 284 284 284 284 284 284 283 283 283 283 283 283 282 281 281 281 280 280 279 279 278 278 277 278 278 278 279 279 279 280 281 282 282 282 282 279 279 279 279 279 278 278 279 278 278 277 277 277 277 277 276 277 277 276 276 276 275 275 275 273 274 274 274 275
295 294 294 293 292 291 290 289 288 287 287 286 285 285 284 284 284 284 284 283 283 284 284 284 283 283 282 282 282 282 282 282 283 284 283 281 280 280 280 279 278 278 277 277 277 278 278 278 279 280 281 281 280 280 280 281 281 281 279 279 279 279 278 278 278 278 277 276 276 276 276 276 277 277 276 277 277 276 275 274 273 274 274 273 274
295 294 293 293 292 290 290 290 288 287 287 287 286 285 284 284 284 284 284 284 283 283 283 283 283 283 282 282 281 281 281 281 284 286 286 285 281 280 279 279 278 278 278 277 277 277 277 278 278 279 279 280 279 280 280 281 281 281 280 281 280 279 278 277 277 278 277 276 277 276 276 276 277 277 277 276 276 275 274 274 273 273 272 270 269
294 294 293 293 292 290 289 289 288 287 287 286 285 285 284 284 284 284 284 283 283 284 283 282 282 282 281 281 281 281 281 283 286 286 286 285 283 280 280 279 279 279 279 278 278 277 277 277 278 278 278 278 278 279 279 280 281 281 281 281 281 281 281 279 277 276 276 275 275 276 276 276 276 277 276 276 275 275 275 274 273 272 270 270 271
294 293 293 292 291 290 290 288 287 286 287 286 285 285 284 283 283 283 283 283 283 282 282 282 281 281 281 281 280 281 280 285 286 286 286 285 284 281 280 280 279 279 279 278 278 278 278 277 277 277 278 279 279 278 278 278 280 281 281 281 281 281 281 282 281 279 277 276 275 275 276 277 276 277 277 276 277 274 273 273 273 272 272 271 271
293 292 292 291 290 290 289 288 287 286 286 285 285 284 284 283 283 283 283 283 282 282 282 281 281 281 281 281 280 279 279 284 286 286 286 285 284 282 280 280 280 280 279 279 279 278 278 277 277 277 277 278 278 278 278 278 278 279 279 279 279 279 281 281 281 281 280 277 276 275 277 278 276 277 278 277 275 272 272 271 271 271 271 271 272
293 292 292 291 290 289 288 288 287 286 285 285 284 284 283 283 283 283 283 282 282 281 281 281 281 281 281 281 280 279 279 285 286 286 286 285 285 283 280 280 280 279 279 279 279 279 279 278 278 277 277 277 278 278 278 278 279 279 279 278 279 279 279 279 279 279 279 278 277 277 277 278 278 278 277 276 275 273 272 272 272 272 272 272 271
292 292 291 290 289 289 288 288 287 285 285 285 284 283 283 283 283 282 282 282 282 282 282 281 280 280 280 280 279 278 280 285 286 286 286 286 285 280 280 279 279 279 278 279 279 279 279 279 278 278 278 277 279 280 280 279 279 278 278 278 278 279 279 280 281 281 280 278 278 278 278 279 280 278 277 274 274 273 274 275 274 272 269 267 267
291 291 289 289 288 288 288 287 286 285 285 284 283 283 282 282 283 282 281 282 281 281 280 280 280 279 279 279 278 278 278 284 286 286 286 286 283 279 280 279 279 278 278 278 278 278 278 278 278 278 278 277 279 281 282 280 278 277 276 276 276 277 277 279 281 282 283 282 282 282 282 283 282 281 280 280 278 275 274 272 270 270 267 266 267
290 290 290 289 288 288 288 287 286 285 284 283 283 283 283 283 283 282 281 280 280 280 280 280 280 279 279 278 278 278 278 282 286 286 286 286 281 279 279 279 278 278 278 278 278 278 278 279 279 278 277 278 280 282 282 281 277 276 275 274 273 273 274 276 277 278 281 282 283 283 283 283 282 282 282 282 281 279 273 269 269 269 267 268 266
290 290 290 289 288 288 287 287 286 285 284 284 283 283 283 282 283 282 281 281 280 281 280 279 279 279 279 278 280 278 278 281 286 286 286 285 281 280 279 279 278 278 277 277 278 278 278 279 279 279 278 278 281 282 283 282 278 276 275 274 273 272 273 275 275 275 275 276 277 279 279 280 280 279 279 282 281 280 277 273 271 269 267 267 267
290 290 290 289 288 287 286 286 285 284 283 283 283 283 284 283 282 281 281 281 281 280 280 279 278 278 278 278 278 278 277 279 284 286 286 285 283 279 279 279 278 278 278 278 279 279 278 277 278 281 281 281 281 282 283 283 280 278 277 274 273 272 274 274 275 275 275 275 275 276 276 277 277 278 279 278 279 278 276 275 273 271 268 267 267
290 290 290 288 287 286 286 285 285 284 284 283 284 283 283 282 282 280 280 280 280 280 279 279 278 278 278 277 278 278 277 278 283 286 286 286 284 281 280 279 280 279 278 278 280 279 278 277 277 279 282 283 283 283 283 283 283 280 278 276 276 277 277 274 275 277 274 274 274 275 275 276 276 277 277 276 275 275 274 275 273 272 270 268 267
290 289 287 287 286 286 285 285 285 284 284 284 283 282 283 282 281 280 280 279 278 278 278 278 277 277 277 277 277 277 278 280 281 285 286 286 284 283 281 281 281 280 279 279 280 280 280 280 279 279 281 282 283 284 284 283 283 282 280 281 281 280 278 276 275 275 275 274 274 274 274 274 275 274 273 272 272 272 272 272 273 272 272 271 269
288 288 287 286 285 285 285 284 284 284 283 283 282 281 282 281 280 280 279 278 278 277 277 277 276 276 276 276 277 277 278 278 282 284 285 286 286 284 283 282 283 282 280 281 281 281 281 281 281 281 281 282 283 284 285 285 284 282 283 284 283 282 280 277 276 275 274 274 274 273 273 273 273 272 271 270 271 271 271 272 272 272 272 272 272
287 286 285 285 285 284 284 284 284 283 283 282 282 281 280 280 280 279 279 278 277 277 276 276 276 276 275 275 276 276 277 278 280 283 284 286 287 286 285 285 284 283 282 282 283 282 281 281 281 282 283 283 283 283 284 284 283 284 284 284 284 283 281 278 277 275 275 274 273 273 273 273 273 272 271 271 271 271 271 271 271 271 271 270 271
285 285 285 284 284 284 284 284 283 283 283 282 281 280 280 279 278 279 278 278 278 277 277 277 276 276 276 275 275 276 277 277 278 280 282 284 286 287 287 286 286 285 283 283 283 283 284 284 284 283 283 284 284 284 283 283 284 284 284 284 283 282 281 280 278 276 275 274 274 274 274 274 274 273 273 272 272 271 270 269 270 270 270 269 268
285 284 284 284 284 283 283 283 283 283 282 282 281 281 279 279 279 278 278 278 278 277 277 277 276 276 276 276 276 276 276 277 277 278 280 281 283 285 286 286 286 286 284 284 284 285 285 285 285 284 284 284 283 282 281 281 282 283 283 283 282 281 280 279 279 278 276 275 275 274 274 275 274 274 273 272 270 269 269 268 267 266 266 265 264
284 284 283 283 283 283 282 282 282 282 282 282 282 281 280 280 279 279 279 278 278 278 277 277 277 277 277 277 277 277 277 277 277 277 278 279 280 281 283 284 285 285 285 285 285 285 285 284 284 284 284 284 283 283 282 281 280 280 280 280 280 280 280 280 279 278 278 277 275 275 275 275 273 270 269 269 268 269 269 267 267 266 266 265 264
284 283 283 283 283 283 282 279 281 281 282 282 281 281 281 281 280 279 279 279 278 278 278 278 277 278 278 278 278 278 278 277 277 277 277 278 278 279 280 281 281 282 282 283 284 284 284 284 285 284 283 282 282 281 281 280 279 279 279 279 279 279 280 281 281 280 279 278 277 276 274 271 269 269 269 268 268 267 267 266 266 265 266 264 263
284 283 283 283 282 282 282 281 282 281 281 282 282 282 281 281 280 281 282 282 281 280 279 279 280 280 280 279 279 279 279 278 278 280 279 279 278 278 278 279 279 280 281 283 282 282 282 281 281 281 280 280 279 279 279 278 278 278 278 278 278 278 278 278 277 277 278 278 276 275 273 270 269 269 268 267 267 266 266 265 265 264 265 264 263
283 282 282 282 282 282 282 281 282 281 281 281 282 282 280 283 283 282 281 283 283 284 283 282 282 282 281 281 282 280 280 281 283 282 282 281 281 281 281 281 281 280 280 282 281 279 278 278 278 278 278 279 278 278 278 277 277 277 277 278 277 277 277 277 277 277 277 276 275 274 274 271 269 268 266 266 266 266 265 266 264 264 262 263 262
283 282 282 282 282 282 282 281 282 281 281 282 281 280 280 281 283 283 283 283 283 284 284 283 284 284 283 281 283 284 284 284 284 283 283 282 282 282 281 281 281 281 281 279 277 277 276 275 276 276 277 277 277 277 277 277 277 276 276 276 276 276 276 276 276 276 275 275 274 274 273 271 270 268 266 266 265 265 264 265 263 263 262 262 262
282 282 282 282 282 282 282 281 281 281 281 281 281 280 279 278 279 281 281 283 283 283 283 282 282 282 283 282 281 280 282 283 283 283 283 282 282 282 282 282 282 282 281 281 276 274 275 274 274 275 275 275 276 277 276 276 276 276 276 275 275 276 275 275 276 275 274 274 274 273 272 271 271 269 267 266 265 265 264 263 263 262 262 263 262
283 282 282 282 282 281 281 281 281 281 280 280 280 280 279 279 277 277 279 281 281 281 282 282 282 282 282 282 282 280 280 281 282 281 282 282 282 282 282 282 282 282 281 278 276 275 274 274 274 274 275 275 275 276 276 275 275 275 275 275 275 275 275 275 276 274 274 273 273 272 272 271 270 268 267 266 265 264 264 263 263 263 262 262 262
282 283 282 281 281 281 281 281 280 280 280 280 280 280 280 280 279 278 276 276 277 279 280 281 281 282 282 281 281 281 280 280 281 281 281 281 281 281 281 280 281 282 280 277 277 275 276 275 275 275 275 275 275 275 275 275 275 275 275 275 275 275 274 274 273 273 272 272 272 271 271 270 268 266 266 266 265 264 264 263 263 262 262 262 261
282 278 276 277 281 281 281 280 280 280 280 279 279 279 279 279 279 278 277 276 276 275 276 278 280 281 280 281 281 281 281 280 280 280 280 280 281 281 281 279 277 278 279 278 277 277 276 276 276 276 276 276 275 275 275 274 275 275 275 275 275 275 274 273 273 272 271 271 271 270 270 269 268 267 266 265 264 263 263 263 263 263 262 262 261
280 279 278 279 280 280 280 280 280 279 279 279 279 279 278 278 278 278 277 277 277 276 276 277 277 279 280 280 281 281 281 281 281 280 280 280 281 281 277 277 277 277 277 278 278 278 278 277 277 277 277 276 276 276 276 276 276 275 276 275 274 274 274 273 272 271 271 271 270 270 269 268 268 266 266 265 264 264 263 263 263 263 263 262 262
280 278 278 278 278 280 279 279 278 279 279 277 277 277 277 276 277 277 277 277 276 277 276 272 272 272 275 275 277 279 280 280 281 281 281 281 281 280 278 277 277 277 277 277 277 278 277 278 278 278 278 277 277 277 277 276 276 276 276 275 275 274 273 273 273 271 270 269 269 268 267 267 267 266 265 264 264 264 264 263 263 263 262 262 262
279 279 278 277 277 277 277 277 276 276 276 275 276 276 275 275 275 275 275 275 275 274 273 273 274 273 272 273 275 276 275 277 277 277 278 279 279 279 279 278 278 277 277 277 277 277 277 278 278 277 278 278 277 277 277 276 276 275 274 274 274 273 274 273 272 272 270 269 268 268 267 266 266 265 265 264 263 263 263 263 263 262 262 262 261
276 276 276 276 278 277 277 275 274 275 274 274 274 274 273 273 273 273 274 273 273 273 272 272 272 272 273 271 270 272 273 273 273 273 275 275 276 277 278 278 278 278 278 278 278 277 277 277 277 277 277 277 277 277 277 276 275 275 275 274 274 273 273 272 271 271 270 269 267 267 266 265 265 265 265 263 263 263 263 263 263 262 261 261 260
275 274 274 275 275 275 274 273 273 273 273 273 273 273 272 272 272 272 272 272 271 271 272 271 271 271 270 269 269 270 270 271 272 272 273 273 274 275 276 276 277 277 277 277 278 277 277 277 277 277 277 277 277 276 276 276 275 275 274 273 273 272 272 272 271 270 268 268 266 265 264 264 264 264 264 263 263 263 263 263 262 262 261 261 260
274 273 271 275 274 274 272 272 273 273 272 272 272 272 272 272 272 271 272 271 271 270 270 270 270 269 268 269 272 272 270 271 271 271 271 271 271 271 272 273 274 274 275 275 275 275 274 273 273 273 273 273 273 274 274 274 274 274 274 272 272 271 271 271 270 268 267 266 265 264 264 263 263 264 263 263 263 263 262 262 262 261 260 260 260
273 272 272 272 272 272 272 272 272 270 271 270 271 271 271 271 271 271 270 270 270 270 269 269 268 266 268 270 271 272 269 269 269 268 268 268 268 269 270 270 270 270 271 271 271 271 270 270 270 270 270 271 271 271 271 271 271 271 271 271 271 270 269 269 269 268 266 266 264 264 263 263 263 263 263 263 261 261 261 261 260 260 260 259 259
273 273 272 271 271 271 272 271 270 270 270 270 270 269 270 270 270 269 269 269 269 269 268 268 267 265 266 270 270 272 269 269 268 267 267 267 267 267 267 268 268 268 269 269 268 268 268 268 268 269 269 269 269 269 269 269 270 269 269 269 268 268 268 267 267 266 265 264 264 263 263 263 263 261 260 260 260 260 259 259 259 259 259 258 258
273 272 271 271 271 271 270 270 269 269 270 268 268 268 268 268 269 269 269 268 267 268 268 268 266 265 265 267 268 268 268 268 268 267 266 267 267 267 267 268 267 267 267 267 266 266 265 265 265 266 265 265 265 265 266 266 266 266 267 267 266 266 266 264 264 262 262 263 264 263 263 262 261 261 260 260 259 258 258 258 258 258 258 257 257
272 272 271 271 270 270 269 269 269 269 267 266 267 266 266 268 268 268 268 267 266 267 267 266 266 265 264 264 264 264 265 265 265 265 266 266 265 266 267 267 267 267 267 266 265 264 263 264 264 263 262 263 263 262 262 263 263 264 264 265 265 264 264 264 263 262 263 263 264 264 263 261 260 260 260 259 258 258 257 258 258 257 257 257 256
271 270 270 269 268 267 267 268 266 267 267 267 267 266 266 267 267 266 266 266 266 265 265 264 264 264 264 264 263 263 263 262 263 263 263 263 264 264 265 265 265 265 265 264 263 261 262 262 262 262 261 262 261 261 262 260 261 261 261 263 264 265 264 263 263 261 260 261 262 262 262 260 259 259 259 259 258 257 257 257 257 256 256 256 256
270 270 269 268 268 267 266 265 266 266 267 267 267 266 266 266 265 264 264 264 264 264 264 263 263 263 263 262 262 262 262 262 262 262 261 261 262 262 263 263 263 263 263 262 260 260 258 258 259 259 259 259 259 258 259 260 260 260 260 261 261 261 261 262 260 259 259 258 258 258 258 258 257 257 257 257 257 256 256 255 255 254 254 255 254
268 268 268 266 266 265 265 265 265 264 265 265 265 265 264 264 263 263 263 262 262 262 263 262 262 262 262 262 262 261 262 262 262 262 261 261 260 260 260 259 259 260 260 259 258 259 259 258 257 257 257 257 257 258 258 258 258 259 259 259 258 258 258 258 257 257 258 257 256 256 256 257 256 256 256 255 255 255 254 254 254 254 254 254 254
266 266 266 266 265 265 265 265 264 265 264 264 263 263 262 263 262 262 262 262 262 262 262 261 261 261 261 261 261 261 261 261 260 260 260 260 260 259 258 257 257 258 258 258 258 256 256 256 256 256 256 256 256 256 257 256 257 257 256 257 258 259 258 257 257 256 257 255 255 255 255 254 254 254 255 254 254 254 254 253 253 253 253 253 253
264 264 264 264 264 264 264 264 264 264 263 263 263 262 262 261 261 261 261 261 261 261 261 261 261 261 261 260 260 260 260 260 260 259 259 259 259 258 258 257 255 256 257 256 257 257 256 255 254 255 255 255 255 255 256 256 256 256 255 256 258 258 258 257 256 256 255 254 254 254 254 254 253 253 253 253 253 253 253 253 253 253 253 252 252
262 263 262 262 262 262 262 262 262 262 262 262 262 262 261 261 261 261 261 260 260 261 261 260 260 260 260 260 260 260 259 259 260 259 259 258 258 257 257 256 256 255 255 255 255 256 255 255 255 255 254 254 254 254 254 255 254 255 257 258 258 258 257 256 255 256 256 255 252 253 253 253 252 253 252 253 253 252 252 253 252 252 252 252 251
Wind_Speed
12 11 10 10 10 11 9 8 8 8 7 6 5 6 6 8 7 6 5 5 6 7 8 8 7 7 8 7 8 7 8 8 7 7 7 8 7 8 9 9 10 8 8 7 5 6 7 8 6 4 3 5 4 4 4 3 2 2 2 2 2 1 2 1 0 2 2 2 2 3 4 2 1 3 1 1 0 1 2 3 3 2 2 2 2
11 11 10 9 11 10 10 8 8 8 9 8 8 7 7 8 7 6 7 6 7 7 8 8 7 7 8 8 7 7 8 8 8 7 9 9 9 7 8 9 9 9 8 8 7 5 7 7 6 5 3 5 5 5 4 2 1 2 2 1 1 1 2 1 0 1 1 4 2 3 3 3 1 2 2 0 1 1 3 3 2 2 1 2 2
11 11 10 10 10 9 10 10 9 10 9 8 8 8 7 8 8 8 8 7 7 8 8 8 8 8 7 8 9 8 9 9 7 8 9 10 11 9 8 9 10 10 9 8 8 7 7 7 6 4 3 6 5 4 3 2 1 2 2 1 1 1 1 1 1 1 1 0 4 2 2 2 1 0 0 1 1 3 3 3 2 1 2 2 3
10 11 10 9 9 8 11 9 11 10 9 9 9 8 7 8 7 8 8 7 8 7 7 8 8 8 8 9 9 9 10 9 8 8 9 10 10 10 9 9 9 9 9 9 8 8 7 8 5 5 5 6 5 4 2 2 2 2 2 1 1 1 0 0 1 0 1 0 1 3 0 0 1 0 1 2 3 3 2 2 2 2 2 2 3
10 10 9 10 9 9 11 10 10 10 10 9 10 9 9 8 7 9 8 8 8 8 8 7 8 8 8 9 10 10 10 10 10 9 8 8 10 10 9 9 9 9 9 9 8 7 8 7 7 6 5 6 4 3 3 2 2 2 2 2 1 2 1 1 1 0 1 1 1 1 1 1 2 2 2 2 2 2 2 2 2 2 3 3 2
10 10 9 10 9 10 10 11 12 12 11 9 10 10 9 8 9 8 9 9 9 9 10 9 9 9 9 9 9 10 10 10 10 10 10 9 8 8 8 9 8 8 8 7 7 7 8 7 7 6 6 6 5 4 3 4 2 2 3 3 2 3 3 2 1 2 1 1 1 2 2 2 2 2 2 1 2 2 2 2 1 2 2 2 2
10 10 9 10 9 10 9 9 8 8 8 9 9 9 10 9 10 10 9 10 10 10 10 10 9 9 9 9 10 10 10 10 10 10 10 10 10 10 9 8 7 7 7 8 7 7 6 7 7 6 6 5 5 5 4 4 4 4 4 3 3 3 3 3 3 3 3 3 2 3 3 3 3 3 1 2 2 2 2 3 3 2 2 2 4
10 10 10 10 8 10 9 8 10 11 10 10 10 9 9 9 10 10 9 10 10 11 11 11 9 9 9 9 9 9 10 10 10 10 10 10 10 8 8 8 8 7 8 7 6 7 6 6 6 6 5 4 4 4 5 5 4 4 3 3 4 4 4 3 4 4 3 4 4 3 3 3 3 3 3 2 2 2 2 1 4 4 4 3 3
10 10 10 11 10 10 9 8 7 10 10 10 9 9 8 8 8 9 9 9 7 9 8 9 10 9 9 8 9 8 9 10 10 11 11 9 9 9 8 9 9 9 8 7 6 5 5 5 6 5 5 4 4 2 3 3 4 3 4 4 4 4 4 2 2 3 3 3 3 3 4 5 4 3 3 3 2 1 1 1 4 4 4 5 4
10 10 11 11 9 10 10 10 10 10 11 11 11 11 10 9 8 9 9 9 9 8 9 9 9 9 11 10 9 8 8 8 11 16 14 11 12 10 9 9 8 7 8 8 6 5 5 5 5 7 6 5 4 3 3 2 1 1 2 4 3 3 3 3 3 3 3 3 3 3 3 4 4 3 3 2 0 0 2 3 4 4 4 5 5
10 11 11 11 10 10 11 12 11 12 12 10 10 11 11 9 8 8 8 10 10 9 9 10 9 9 10 12 12 11 9 8 15 14 16 17 14 12 13 11 8 9 8 9 8 6 5 5 5 6 6 5 5 8 7 7 7 6 2 2 4 5 4 4 4 3 4 3 3 4 4 5 5 2 3 2 2 3 3 2 3 3 3 3 5
11 11 11 10 10 11 11 12 11 12 12 11 9 8 8 10 10 9 8 8 8 6 9 10 9 9 10 11 10 10 10 13 18 17 17 17 14 12 8 8 8 6 8 10 8 6 6 6 4 4 5 6 6 6 8 9 10 9 9 8 7 8 8 7 6 5 5 4 5 5 4 5 4 3 3 3 4 3 3 2 3 3 3 4 5
10 10 10 11 10 10 11 12 12 12 12 10 9 9 10 10 11 10 10 8 7 8 8 10 9 10 11 12 12 12 9 13 16 18 17 17 18 14 6 8 9 10 10 10 7 6 6 5 5 4 4 9 7 6 6 7 9 11 11 11 12 13 13 14 13 7 3 5 6 6 6 4 5 4 3 4 2 3 3 3 3 3 4 5 6
10 11 10 10 10 10 11 10 11 11 10 10 10 10 11 12 11 10 9 8 8 8 7 8 7 9 12 13 10 6 9 15 18 18 18 18 19 14 12 14 12 12 12 11 9 7 7 6 6 5 6 7 7 7 6 6 6 7 8 8 8 10 14 16 17 16 11 7 7 8 7 4 5 3 3 2 4 3 2 3 2 3 5 7 7
10 10 11 10 10 10 11 12 9 11 10 10 10 11 12 10 9 9 9 10 11 11 11 11 10 10 9 6 6 8 9 17 18 19 19 20 20 12 11 11 9 9 10 9 9 8 7 7 6 6 6 7 6 8 7 7 6 6 7 8 8 8 8 10 10 9 9 9 8 8 6 5 6 5 3 3 4 3 3 3 3 4 6 8 8
10 10 10 11 11 11 12 11 10 10 10 10 11 12 11 10 9 8 8 7 7 6 6 6 7 6 6 7 6 6 7 18 21 21 20 20 20 9 9 12 12 11 7 6 6 5 5 5 6 6 6 7 10 15 11 7 7 8 9 8 7 7 8 9 12 11 10 9 8 8 6 7 9 5 4 3 1 2 2 2 2 2 3 5 8
11 11 10 10 10 10 11 11 9 10 11 12 12 11 10 10 6 6 8 6 8 8 8 8 8 9 10 9 10 10 9 15 18 20 21 21 14 7 10 8 8 10 9 6 5 6 6 6 6 5 6 7 11 16 16 13 7 9 9 9 8 7 8 6 12 16 17 17 17 16 16 15 13 12 12 12 7 4 3 5 7 4 4 6 7
10 10 10 9 9 9 11 11 10 11 12 13 12 10 8 5 7 9 10 10 10 9 8 8 7 7 8 9 10 10 9 14 19 19 20 21 16 14 7 11 7 8 7 4 5 6 7 12 8 6 7 7 12 16 17 14 9 10 10 9 10 10 8 5 5 8 15 18 20 20 20 17 18 18 17 17 16 11 7 8 4 3 6 6 7
9 9 9 8 9 9 8 9 9 10 11 11 10 11 10 9 8 9 8 8 9 7 7 7 7 6 6 7 5 6 5 10 17 18 19 19 15 13 12 12 8 6 7 6 6 5 7 9 14 10 9 9 14 16 18 16 10 11 11 9 11 12 13 6 8 8 7 8 10 11 12 16 14 12 12 20 19 17 12 7 4 5 6 6 5
7 7 7 8 8 7 7 9 9 10 11 9 9 9 7 6 9 9 8 5 6 7 7 8 9 8 8 8 8 6 6 7 11 18 19 20 21 13 12 12 9 10 7 7 9 7 7 6 10 18 19 17 16 17 18 21 12 10 8 9 10 13 12 9 9 9 10 9 9 9 11 10 9 10 10 10 11 11 12 9 6 5 6 6 5
8 8 7 6 6 7 6 8 9 8 9 9 8 7 5 7 8 9 8 7 7 6 7 7 7 6 7 7 7 7 8 10 12 20 20 18 18 15 7 10 11 11 6 7 7 8 8 9 5 14 22 22 20 20 20 21 20 10 10 10 11 11 3 3 8 13 9 8 9 8 8 7 8 7 7 8 8 8 9 10 7 7 6 6 6
8 7 5 6 7 7 8 7 8 8 7 7 8 5 5 7 7 8 5 7 9 8 7 6 6 5 5 6 6 7 7 10 10 17 21 20 19 19 7 6 11 12 7 7 8 8 10 9 9 14 19 21 21 21 22 20 21 13 11 15 17 16 11 7 5 5 7 7 7 8 8 7 7 7 7 7 7 7 7 7 7 8 8 7 7
7 6 6 7 7 8 8 9 8 7 7 8 9 9 6 7 8 8 9 8 9 9 8 7 7 6 6 6 6 7 7 8 10 11 21 22 20 19 13 9 15 7 9 11 10 10 8 8 9 11 17 18 19 21 21 22 18 13 20 20 19 19 15 8 7 7 7 7 8 8 8 8 8 8 8 7 6 5 6 6 7 7 7 7 8
6 6 7 7 8 7 8 8 8 8 9 9 8 8 7 6 6 6 7 7 6 6 6 7 7 7 7 7 4 6 5 4 9 11 12 20 20 18 17 14 16 8 9 9 8 8 8 8 9 13 15 17 18 19 20 20 14 19 20 21 20 18 10 8 8 8 8 8 9 10 10 8 8 8 8 7 6 7 6 6 6 7 7 6 7
7 7 8 8 8 8 8 8 9 8 9 10 10 7 7 8 7 6 7 6 6 7 6 7 8 8 7 6 5 4 4 4 4 8 12 14 20 20 18 17 17 17 11 9 9 9 8 10 12 13 15 17 19 19 17 18 23 22 21 21 17 9 9 8 8 7 10 11 10 10 9 7 8 6 5 7 8 6 4 4 5 5 4 3 2
8 9 8 8 9 9 9 8 8 9 9 8 8 7 9 8 7 8 7 7 6 6 7 7 6 6 7 7 7 6 6 6 6 7 9 8 11 18 20 19 16 18 15 9 13 13 12 11 12 14 15 13 11 9 9 9 15 19 19 18 10 9 8 8 9 9 8 8 9 10 9 6 6 6 6 6 7 9 8 7 6 5 4 2 2
9 9 9 7 7 9 9 6 6 7 8 6 6 6 7 7 7 7 8 7 7 7 7 7 7 7 7 7 7 7 8 7 6 6 7 7 7 8 10 11 13 14 11 9 9 9 11 12 10 11 9 13 15 13 13 11 9 9 8 8 9 9 9 9 9 10 10 8 7 7 7 7 3 4 5 7 8 7 7 7 6 6 5 4 5
8 7 9 6 5 7 7 9 9 6 7 7 7 7 6 7 8 9 9 9 9 9 8 8 9 9 8 8 8 8 7 7 7 8 7 7 6 6 8 7 8 8 7 7 7 7 6 7 10 8 7 7 8 7 8 7 8 7 8 7 8 9 10 12 12 10 10 8 8 6 4 2 3 6 5 6 7 5 5 6 7 6 4 4 3
8 9 7 7 6 6 5 8 6 7 6 6 6 7 8 8 7 6 6 6 8 8 8 8 7 7 7 8 8 8 7 8 10 11 12 14 12 10 10 8 6 6 9 8 4 4 4 5 5 5 5 6 6 6 6 6 7 8 8 8 7 7 7 7 9 10 10 8 9 6 5 4 5 4 5 6 6 6 5 6 5 6 4 4 6
7 8 7 6 6 7 5 6 6 7 7 7 7 4 5 8 6 7 6 8 10 9 8 7 7 7 7 7 8 8 9 9 10 18 18 18 18 16 13 10 10 7 7 11 7 6 7 7 8 8 8 7 6 6 7 6 7 7 7 8 9 8 8 8 9 9 8 7 6 7 7 5 5 5 5 7 5 5 6 8 6 5 6 6 6
6 6 7 6 8 7 7 7 6 6 6 7 6 6 5 5 6 6 6 10 10 11 9 6 7 10 7 5 6 8 6 9 12 15 18 17 17 17 16 15 14 14 13 6 6 7 6 7 7 7 7 7 8 7 6 6 6 6 6 7 8 9 9 9 8 6 7 7 8 8 7 5 6 5 7 7 6 5 5 5 5 5 6 6 6
7 7 6 6 9 7 6 6 6 6 6 5 6 6 6 5 3 4 6 8 9 8 7 6 6 5 6 5 5 2 6 8 10 13 15 16 16 16 16 16 16 15 14 13 6 6 6 7 7 7 6 7 8 6 6 6 6 6 5 5 7 6 7 8 7 7 7 8 9 8 7 7 8 6 6 6 6 6 6 6 6 6 6 5 6
7 7 6 7 7 8 6 7 6 6 6 7 6 6 6 6 6 5 4 6 6 6 7 7 7 7 8 7 7 6 6 7 10 11 12 13 13 13 13 14 13 14 13 9 7 7 6 6 6 5 6 6 5 5 5 5 5 5 5 6 6 5 5 5 6 7 7 8 8 8 7 7 6 4 5 5 6 7 7 7 5 5 5 5 6
6 6 6 8 7 6 5 6 6 5 5 5 6 6 6 6 5 6 6 5 4 5 7 9 9 9 9 9 9 9 8 9 10 11 11 11 12 12 11 8 11 13 12 7 8 7 6 6 6 5 4 4 4 4 4 4 4 4 4 5 5 4 4 4 5 7 7 7 8 7 7 6 4 5 6 6 5 6 6 6 6 6 6 7 7
5 6 11 9 6 6 5 5 5 5 5 6 5 5 5 5 6 7 6 7 6 6 5 5 9 11 8 8 10 11 10 10 10 10 11 11 12 12 11 6 7 8 9 8 8 7 7 7 6 6 5 5 5 4 4 4 3 4 4 4 4 4 4 5 6 5 6 6 7 7 6 7 6 5 6 6 6 7 7 7 7 8 7 6 6
6 4 5 7 4 4 4 5 5 5 5 5 4 4 4 4 5 4 4 4 5 5 4 4 3 6 8 5 6 10 12 11 10 10 10 11 12 13 8 8 8 8 8 8 8 8 7 7 6 6 5 5 5 6 6 6 6 6 6 6 6 6 5 5 4 5 6 6 7 7 6 6 6 6 5 6 8 8 7 7 7 7 7 6 5
5 4 5 5 4 4 4 4 4 4 5 5 5 3 3 3 2 3 3 3 4 3 4 4 4 3 3 2 5 7 6 5 7 10 12 12 14 10 7 7 7 6 6 7 6 6 7 7 6 6 5 5 5 6 6 7 6 6 6 6 5 5 5 5 5 4 6 6 6 6 6 7 6 6 6 6 6 7 7 7 7 7 7 7 6
5 5 5 6 4 4 4 3 4 6 5 3 3 3 3 3 3 3 3 3 3 3 4 5 5 5 5 4 5 4 4 7 6 5 4 7 8 8 8 7 7 7 7 6 6 6 7 6 5 5 5 5 5 4 4 5 5 5 5 6 6 6 9 9 8 6 5 5 5 6 5 6 6 5 5 7 7 7 7 7 7 7 6 7 6
3 6 9 10 6 4 3 3 4 4 3 3 2 3 3 3 3 2 2 2 3 3 3 3 3 3 3 5 4 4 6 4 5 5 5 5 5 5 6 7 7 7 6 6 5 6 6 6 5 6 6 5 5 5 6 5 5 5 5 5 5 5 5 5 5 5 5 5 5 5 5 5 5 6 6 6 7 7 7 7 7 7 7 6 6
4 4 6 9 4 4 3 4 4 4 3 5 4 3 3 3 4 4 3 4 4 3 3 4 3 3 3 5 5 6 6 6 6 6 6 6 6 7 6 6 6 6 6 6 6 5 5 5 5 4 4 5 6 7 6 6 6 6 5 5 6 6 6 5 5 5 5 5 5 5 5 5 5 4 5 6 7 7 7 7 6 6 6 5 4
4 4 5 5 5 4 4 3 3 3 3 3 3 3 3 3 3 3 3 3 3 3 3 3 3 3 3 4 8 8 4 4 4 4 4 5 4 4 5 5 5 5 4 3 3 2 1 1 1 1 1 1 2 2 2 1 1 3 4 4 4 5 5 5 4 4 4 5 5 5 5 4 5 5 6 6 6 6 5 5 5 4 5 4 4
5 5 5 5 5 4 4 3 3 4 4 3 4 3 3 3 3 3 3 3 3 3 3 3 3 3 4 8 8 8 3 1 2 3 2 3 3 3 3 3 2 3 3 2 1 1 1 1 1 0 0 0 0 0 1 2 2 2 2 3 4 4 4 4 4 4 4 4 4 5 5 5 5 5 5 4 4 4 4 4 5 4 4 5 4
6 5 5 4 4 4 3 3 3 3 3 3 2 3 3 4 3 3 3 3 3 3 3 3 3 3 3 7 7 8 3 2 2 3 2 3 3 2 2 2 2 1 1 1 2 1 1 1 1 1 1 1 1 1 2 2 3 3 3 4 4 4 5 4 3 4 4 4 4 4 5 5 4 4 3 3 4 4 4 4 4 4 4 4 4
4 4 3 4 4 4 3 3 3 3 2 3 4 3 3 2 2 3 3 3 3 3 3 3 4 4 3 3 4 4 5 4 4 3 3 3 3 3 3 3 2 2 1 1 1 1 1 1 2 2 1 1 1 1 2 2 2 3 4 4 4 4 4 4 4 4 3 3 4 4 4 4 4 3 4 4 4 5 4 5 5 5 4 4 5
3 4 4 4 3 3 3 3 3 4 4 4 3 2 2 2 2 2 3 3 3 3 3 3 3 3 3 3 3 3 3 2 3 3 3 3 3 3 3 3 3 2 2 2 2 2 2 2 2 2 2 2 2 2 2 1 1 1 2 3 3 3 4 4 4 3 3 4 4 4 3 4 5 5 5 5 5 5 5 5 5 5 5 5 5
3 3 3 3 3 3 3 3 3 3 3 3 3 3 2 2 2 3 2 3 3 3 3 2 2 3 2 3 3 3 2 1 1 1 2 1 2 1 1 1 1 1 1 2 1 2 1 1 1 1 1 1 1 1 0 0 0 1 1 1 1 1 0 1 2 3 3 3 4 4 4 5 5 5 6 5 5 5 5 4 4 5 5 5 6
3 3 3 3 3 3 3 3 2 3 3 3 2 2 2 2 2 2 2 3 3 3 2 2 2 2 2 1 1 1 1 1 1 1 2 1 1 1 0 0 0 0 0 0 1 1 1 1 1 1 1 1 0 1 0 0 1 1 1 1 1 1 1 1 2 2 3 3 4 4 4 4 5 4 5 5 4 5 5 5 5 5 5 5 5
3 3 3 3 3 3 2 2 3 3 2 2 2 2 2 2 2 2 2 2 2 2 2 2 2 1 1 1 1 1 1 1 1 1 1 1 1 1 1 1 1 1 1 1 1 1 1 1 1 1 1 1 2 2 2 2 1 1 1 1 1 1 1 2 1 1 1 2 3 3 4 5 4 4 5 6 5 5 5 5 4 3 5 4 5
3 3 3 3 2 2 2 2 2 2 2 2 2 2 2 2 2 2 2 2 2 2 2 2 1 1 1 1 1 1 1 1 1 1 1 1 1 1 2 2 2 1 1 2 2 2 1 1 1 2 2 2 2 2 2 2 2 1 2 1 2 4 4 3 1 1 3 2 2 2 2 3 4 4 4 4 5 4 4 4 4 4 4 4 4
4 3 3 3 3 3 2 2 2 2 2 2 2 2 2 2 2 2 2 2 2 2 2 1 1 1 2 1 1 1 1 1 2 2 1 1 1 1 2 2 2 3 3 3 2 2 2 2 2 2 2 2 2 2 2 2 3 3 3 3 6 6 5 5 6 4 3 2 3 3 4 4 4 4 4 4 4 5 5 5 4 5 5 5 5
3 4 3 3 3 3 2 2 2 2 2 2 2 2 2 2 2 2 2 2 2 2 2 1 1 1 1 0 1 1 1 1 1 1 1 1 1 1 2 2 3 3 3 2 2 1 2 2 2 3 3 3 3 3 3 3 3 3 5 8 8 6 6 6 4 6 7 5 3 3 5 5 4 4 4 4 4 5 6 5 5 5 5 5 4
Wind_Direction
200 203 192 191 182 186 184 175 181 186 174 156 155 163 165 183 186 178 137 160 158 159 160 158 158 157 150 151 148 146 136 131 128 130 127 127 123 126 127 124 120 117 118 111 105 107 104 100 101 105 114 102 94 86 79 76 62 70 73 68 76 21 9 331 171 125 124 89 133 139 139 148 227 164 197 209 248 237 259 253 257 267 288 297 309
199 198 193 191 188 182 178 182 182 186 187 175 182 183 181 184 181 159 168 166 166 163 161 159 159 156 156 145 144 140 133 133 139 138 135 130 123 129 131 127 123 124 124 123 118 107 107 108 109 110 96 102 102 96 100 111 118 111 74 79 85 80 3 328 327 186 148 155 148 134 153 165 206 171 160 295 292 270 260 262 247 232 285 294 303
195 196 192 188 190 183 186 192 188 188 174 182 185 184 185 183 173 176 174 166 171 169 162 162 160 157 155 150 145 140 140 139 145 142 139 135 133 131 135 134 131 133 128 125 119 115 113 117 122 114 108 102 98 100 112 130 141 117 109 87 104 87 27 353 319 253 189 229 109 166 159 167 203 229 22 224 244 239 246 258 268 285 258 282 290
193 195 191 183 178 172 194 191 188 188 183 188 190 188 184 183 175 181 176 168 172 165 160 163 159 160 158 154 148 144 143 146 144 141 142 139 138 136 135 132 131 132 131 128 125 123 124 126 129 128 120 111 107 115 138 158 145 116 124 122 111 124 107 76 315 325 340 211 213 131 163 100 302 115 198 231 225 236 256 267 257 253 260 272 286
192 190 183 175 176 176 188 192 191 185 186 186 190 186 183 179 178 180 173 172 170 160 161 164 163 162 161 160 153 149 150 149 145 141 140 141 138 136 137 132 132 130 125 122 121 123 133 138 138 135 126 116 124 133 158 166 150 128 148 146 163 160 157 206 195 283 227 243 263 112 129 247 223 227 225 224 260 256 249 259 268 265 276 267 262
190 185 182 180 177 180 185 191 195 191 186 183 188 186 181 179 181 182 178 176 169 168 166 169 170 169 162 161 158 155 151 151 150 147 144 139 132 131 129 126 120 117 114 115 121 124 135 135 137 134 127 133 145 156 160 170 155 157 172 170 171 166 188 190 174 196 213 242 243 269 245 213 246 237 190 199 236 275 285 281 255 253 263 276 273
186 184 181 185 179 186 179 181 174 167 177 181 184 184 182 180 180 185 183 180 175 169 172 170 173 169 164 161 161 157 153 150 146 144 139 136 135 135 129 118 113 107 113 118 117 122 127 129 128 129 132 140 153 167 163 167 171 183 186 182 176 176 191 189 191 197 211 219 243 242 248 251 213 235 204 149 216 236 269 294 279 266 283 289 295
186 186 184 186 183 183 180 168 175 182 182 183 189 188 184 182 183 182 182 184 181 179 176 174 171 167 163 162 158 155 152 149 146 144 146 146 143 129 119 120 119 116 120 123 121 130 127 122 118 132 143 154 168 170 163 173 172 186 193 178 186 188 198 199 189 203 214 224 229 234 249 243 249 231 196 194 228 241 197 232 291 301 299 294 293
186 185 185 192 195 186 173 160 155 175 181 182 182 184 182 181 182 182 182 184 182 180 179 174 168 162 155 156 153 157 159 159 159 156 147 136 128 125 127 133 134 134 128 118 105 113 119 120 127 138 158 145 119 91 141 162 169 181 192 175 194 190 204 206 198 209 223 219 234 241 238 241 236 219 230 222 232 264 15 331 277 279 283 292 286
184 186 191 196 188 176 167 171 175 167 181 185 179 180 179 180 184 185 187 187 183 176 176 174 174 166 157 152 152 156 165 166 161 155 153 147 146 143 138 139 133 121 118 119 126 131 132 126 137 151 145 145 165 172 160 148 182 27 189 178 184 192 198 205 207 214 216 224 227 226 241 245 236 235 236 243 166 242 250 252 263 287 304 289 290
190 189 195 192 185 177 178 186 176 181 183 181 180 176 176 177 183 187 189 189 185 179 173 174 180 173 162 155 160 172 167 161 160 156 155 153 153 153 145 121 114 130 137 139 144 149 140 139 140 159 158 178 190 203 206 204 212 218 247 261 199 190 189 198 217 212 216 223 224 229 236 244 244 232 236 229 237 221 238 247 263 280 287 301 290
189 194 192 189 186 181 180 182 183 181 176 181 174 171 168 173 180 186 188 187 188 175 179 183 177 167 161 169 169 170 170 168 167 165 161 155 149 135 124 135 141 143 140 153 156 139 144 144 154 156 179 190 191 196 209 212 212 216 221 222 224 222 214 203 206 217 213 219 233 231 227 241 246 236 236 223 228 226 220 226 245 256 267 269 270
187 190 189 187 185 182 181 180 181 177 181 172 171 171 174 178 183 185 188 183 176 182 184 176 174 172 176 178 181 179 164 164 166 162 160 152 149 144 136 132 140 141 142 145 139 141 140 144 153 170 177 190 191 192 186 202 215 219 221 224 229 228 231 231 229 224 214 224 233 243 231 240 244 240 224 220 218 212 227 239 241 253 260 262 263
188 190 188 189 188 182 179 178 183 167 157 170 171 175 176 184 185 182 176 174 177 181 178 179 179 179 185 189 181 140 157 171 166 162 158 156 155 152 156 145 138 131 140 149 148 140 151 152 160 172 175 181 193 192 191 189 191 203 214 218 220 226 230 235 235 232 229 228 228 237 237 225 235 243 244 193 194 212 217 234 238 248 253 255 273
190 190 191 189 184 179 176 182 172 171 173 168 171 177 178 179 177 178 176 178 177 180 182 183 187 187 187 174 166 177 173 168 162 159 162 165 163 153 135 123 128 130 142 140 137 139 149 161 167 174 173 181 190 190 186 192 189 199 208 215 217 216 216 222 223 218 219 225 229 237 238 236 241 238 215 193 194 208 204 201 228 252 269 278 274
192 189 188 185 184 177 177 179 175 169 162 165 171 178 181 180 174 170 171 173 177 171 179 179 177 179 178 181 177 161 167 173 172 173 168 162 157 146 137 140 143 142 138 147 148 141 146 161 169 180 180 187 198 197 196 190 195 204 214 218 218 220 226 223 220 216 216 218 223 228 231 238 239 221 204 189 201 198 196 222 220 226 250 261 264
193 190 185 180 175 166 166 173 170 166 161 166 177 180 177 177 156 147 167 158 174 177 179 181 179 175 177 180 179 183 186 186 176 173 171 163 149 121 136 132 136 132 151 151 147 150 170 172 174 174 187 199 199 203 204 196 200 210 219 223 225 227 235 227 229 228 227 227 227 229 232 238 239 228 216 213 211 198 183 211 221 201 228 257 268
191 190 189 176 166 159 168 174 171 173 174 180 180 180 173 159 165 172 173 174 181 182 177 173 175 177 177 183 185 182 186 190 184 178 169 165 160 148 147 135 145 143 126 135 152 174 189 190 186 184 193 209 204 208 209 203 204 212 218 222 229 235 241 222 232 233 237 240 240 241 242 241 242 241 238 244 240 217 184 210 201 191 236 242 263
191 190 182 165 167 165 171 174 171 173 179 181 177 175 175 172 166 170 176 174 179 168 167 167 165 165 171 178 167 178 176 193 188 183 177 169 159 154 154 132 141 146 136 146 175 185 199 199 204 203 206 213 214 213 212 211 208 213 216 203 222 234 239 206 222 231 229 230 237 235 242 239 238 240 245 245 236 226 215 208 196 211 229 238 252
180 169 169 167 166 160 166 170 171 171 175 174 174 176 157 142 163 162 168 156 155 165 165 168 169 174 168 169 183 180 167 188 198 188 181 179 173 168 155 137 147 137 148 177 191 206 206 203 211 220 223 222 219 218 218 220 216 216 208 215 226 241 243 233 232 231 235 229 235 228 234 229 227 231 232 232 231 218 217 228 225 206 224 233 235
170 170 169 152 154 158 160 167 166 168 170 171 165 164 145 153 156 162 159 151 153 151 162 165 167 166 169 172 174 175 168 180 197 193 191 182 173 167 162 148 144 135 152 173 201 202 208 211 187 215 226 227 226 226 229 230 230 222 215 221 221 237 239 206 231 227 234 234 237 237 237 228 225 221 214 218 215 212 216 221 210 217 217 221 234
162 159 146 146 150 151 153 153 160 157 153 147 147 122 117 149 154 154 135 148 156 156 151 153 155 155 161 172 180 180 183 191 192 197 194 186 177 178 164 161 169 144 158 190 204 216 220 216 216 218 221 229 230 229 230 231 235 234 230 230 237 236 238 240 237 230 234 237 236 239 234 230 227 215 211 211 204 200 198 204 211 215 226 220 215
143 140 140 142 143 144 147 147 147 143 145 147 147 146 131 143 150 151 151 149 152 155 157 157 157 164 168 183 183 183 183 196 201 198 198 193 185 186 180 160 181 166 180 205 209 219 219 215 220 207 215 222 227 233 235 235 235 236 241 244 244 241 241 235 232 235 234 235 236 240 236 229 228 224 211 212 207 192 195 201 210 216 224 231 236
136 138 140 140 139 142 144 144 142 147 150 149 145 129 143 134 139 142 149 147 139 143 159 162 168 173 183 190 170 181 177 169 203 206 201 200 196 188 191 186 183 190 198 217 214 216 216 212 220 215 218 222 226 230 234 235 236 239 241 244 247 250 241 229 230 229 232 236 237 239 238 229 227 227 220 207 200 198 197 202 206 217 222 229 235
137 143 144 143 143 142 143 145 148 151 152 149 148 142 134 138 143 143 148 152 151 155 159 168 182 186 182 178 159 150 153 154 170 207 212 212 207 204 200 195 197 199 210 221 224 227 228 223 216 215 218 221 224 226 231 231 239 242 243 247 248 244 244 236 229 224 233 234 235 238 238 231 229 228 206 187 196 184 175 201 203 209 216 234 243
146 149 147 147 149 146 144 144 148 152 150 152 148 148 151 154 150 155 158 157 157 156 162 164 170 166 180 184 179 172 172 170 178 186 202 213 218 217 214 213 207 203 206 215 223 228 229 232 222 218 222 220 220 225 228 230 230 237 242 246 244 241 237 238 238 233 232 234 235 236 240 234 227 219 202 192 191 202 194 200 195 210 179 198 250
147 147 152 142 139 150 148 141 139 144 151 145 142 143 151 154 148 154 163 162 166 172 168 170 178 182 186 188 181 175 175 181 174 169 191 195 207 217 224 228 227 229 228 225 221 219 225 225 228 231 233 224 229 231 239 235 224 229 226 227 233 235 237 236 238 243 248 244 240 240 239 237 211 133 181 193 211 211 194 197 204 213 179 198 214
149 141 150 142 142 149 148 142 142 148 157 156 152 152 156 161 162 170 174 173 170 178 178 180 186 187 187 185 183 181 179 181 183 179 181 183 183 191 205 213 216 215 220 225 228 230 234 238 238 239 236 239 235 234 238 231 229 224 227 226 229 229 235 241 248 249 249 250 254 251 248 134 178 207 199 209 222 203 182 195 202 209 185 171 217
149 149 144 140 144 152 139 151 153 150 154 162 165 164 166 166 169 175 181 174 173 170 176 184 186 187 182 181 177 186 182 187 202 194 193 194 192 194 200 199 187 199 215 214 218 239 242 241 238 228 224 229 228 221 221 220 224 224 227 229 229 228 230 228 240 245 250 248 250 242 237 191 222 193 211 218 221 203 184 191 206 194 216 188 220
148 153 153 148 146 154 143 155 157 158 160 162 158 140 144 166 167 171 170 182 180 181 177 185 184 173 189 195 190 188 196 208 179 186 197 198 202 203 207 201 197 201 206 217 219 234 237 241 240 238 238 233 228 224 224 221 226 225 224 225 227 228 230 233 237 244 245 240 244 245 245 223 227 196 206 223 225 201 199 197 209 186 198 214 219
145 152 158 161 157 159 153 157 161 159 159 160 152 142 143 132 88 99 147 171 174 176 176 124 148 171 179 179 185 197 145 120 160 185 188 192 197 205 211 213 212 213 211 202 215 220 227 233 235 233 235 234 234 229 228 229 229 228 226 219 223 224 229 233 236 240 245 249 253 256 255 236 235 209 215 222 219 214 192 195 184 201 205 206 222
158 164 164 156 158 163 159 160 157 159 158 160 157 154 150 145 164 125 119 154 166 163 169 157 165 158 171 155 137 146 148 149 151 168 182 190 195 201 207 212 216 217 219 210 214 218 218 226 230 230 228 231 235 233 226 224 227 230 232 233 232 222 225 233 231 234 241 245 248 248 240 237 239 225 218 222 215 214 201 202 196 198 209 211 220
160 161 159 153 160 161 156 159 162 158 156 160 160 163 160 166 163 156 144 151 165 179 191 193 187 187 186 187 170 157 157 173 170 168 176 186 193 199 203 208 212 214 209 210 214 222 216 220 225 225 223 231 231 225 222 218 219 226 233 239 243 235 225 222 220 231 236 237 240 243 237 236 237 226 221 210 207 218 209 208 202 199 200 209 222
158 161 158 159 159 164 161 159 160 157 157 161 165 162 176 172 165 151 148 155 165 196 208 211 208 204 203 195 192 190 180 174 181 183 184 185 191 193 195 202 209 210 206 208 212 220 219 223 225 224 225 229 233 233 231 223 216 210 218 234 242 240 226 192 211 228 229 231 235 237 232 230 212 217 232 227 207 208 213 211 190 200 205 212 223
157 148 152 155 163 162 158 155 157 157 157 166 165 170 170 167 153 160 164 165 170 175 177 189 205 200 199 204 200 192 188 183 180 185 189 191 190 189 190 195 204 209 212 215 217 220 223 223 224 223 221 225 222 219 226 229 236 241 244 240 233 228 226 212 224 223 219 226 233 231 226 225 222 214 211 214 207 216 215 208 204 208 216 217 215
152 141 153 162 155 155 153 158 161 159 160 165 165 162 153 149 157 165 160 162 158 151 149 158 146 183 175 139 177 199 196 189 185 183 188 189 192 190 194 204 205 210 211 215 217 221 224 225 222 222 219 220 217 227 231 233 236 238 239 240 237 233 230 226 229 221 221 225 229 231 226 226 221 217 217 222 220 221 215 213 214 216 217 218 207
148 138 158 166 158 152 144 141 150 145 140 137 142 144 141 147 147 146 150 159 153 149 138 112 107 109 109 113 107 102 119 172 193 200 199 195 193 194 203 202 204 206 209 212 215 216 222 225 220 223 221 221 219 220 222 228 227 223 223 227 228 238 246 244 246 222 224 226 229 224 225 229 223 217 209 222 225 220 220 219 220 220 213 214 205
156 152 159 157 149 132 129 130 127 124 131 131 136 138 138 140 142 146 151 148 140 138 132 148 158 158 171 166 149 149 131 118 106 99 161 201 207 207 205 207 207 214 216 215 212 216 224 224 224 226 228 230 233 225 227 232 220 203 208 217 226 226 248 256 260 242 220 216 221 223 222 226 223 217 206 221 226 227 227 221 222 221 217 213 202
124 132 138 146 139 134 131 120 128 140 128 133 132 134 136 134 135 145 142 133 143 149 141 147 164 168 156 130 136 129 133 158 182 199 195 198 204 208 208 212 215 218 219 218 209 210 218 223 226 228 233 239 244 246 244 231 210 216 222 226 229 232 235 236 237 223 217 216 222 218 213 218 214 215 209 217 229 227 229 220 217 217 217 207 206
128 129 140 141 121 130 118 132 139 139 147 147 149 148 145 151 161 160 150 149 158 156 156 157 168 160 113 126 143 154 169 179 185 190 190 192 197 202 203 211 216 216 214 216 216 211 209 217 215 216 227 229 235 238 234 223 221 223 220 225 230 235 234 227 219 215 214 211 210 210 211 214 214 206 204 211 222 225 226 224 216 212 215 215 200
121 117 129 136 123 119 120 127 143 149 141 140 133 144 153 146 144 137 145 147 147 146 147 149 144 103 122 148 160 166 162 172 167 173 177 182 186 191 205 208 212 216 215 210 217 212 178 140 95 102 67 30 1 345 333 314 286 260 249 238 231 239 238 231 217 207 209 203 207 212 216 206 203 201 215 217 215 218 220 218 213 203 201 200 192
127 134 142 134 138 140 139 150 142 133 132 135 138 152 144 143 141 150 149 151 147 147 138 136 113 115 146 158 164 169 148 128 135 152 166 172 186 195 202 212 216 210 213 209 198 167 159 126 121 149 181 226 239 259 335 292 290 292 285 273 259 256 248 238 224 211 206 214 210 209 210 208 204 207 216 206 191 203 200 198 201 196 195 193 190
131 129 126 127 140 146 141 128 117 128 137 146 148 132 131 132 137 138 139 147 140 146 141 143 125 131 149 163 169 173 170 185 172 175 176 179 189 195 201 211 220 226 195 139 82 111 145 175 207 215 214 221 202 209 231 248 246 243 239 244 246 242 242 237 230 220 213 210 219 213 208 211 202 187 185 187 187 190 197 194 197 202 199 187 183
123 118 121 126 123 107 103 112 121 128 130 117 111 105 109 121 131 134 138 137 142 140 139 138 134 145 147 158 170 187 190 190 187 190 189 193 196 195 201 200 205 203 207 152 151 172 151 205 226 239 217 174 192 209 229 235 228 227 233 236 236 229 230 227 227 222 205 207 220 217 209 188 175 175 187 187 181 188 192 191 201 200 192 186 183
109 122 126 121 112 112 114 111 111 108 112 115 115 112 128 136 137 134 132 137 135 133 131 126 128 143 150 159 170 189 190 186 179 183 191 200 200 201 205 202 192 188 201 214 219 194 199 202 222 225 222 214 189 183 214 245 244 241 226 214 224 233 227 223 221 202 187 197 213 209 191 170 185 187 192 188 187 190 196 200 199 192 193 191 188
112 107 108 105 106 103 109 105 96 111 132 139 133 140 144 129 115 125 133 123 129 134 130 127 134 143 151 159 169 177 185 168 182 193 199 205 202 215 231 220 224 180 196 207 183 149 200 218 216 223 198 207 169 145 140 103 65 21 10 356 301 274 27 92 102 121 164 180 196 193 192 187 190 195 194 186 184 190 200 200 189 192 198 196 202
92 96 93 103 105 101 91 102 119 131 131 132 128 125 131 128 118 110 99 105 119 125 126 135 136 144 144 144 146 154 154 161 197 203 202 208 224 201 223 145 94 233 260 149 102 145 171 203 221 185 223 284 78 148 236 231 182 188 192 218 229 219 236 165 150 174 185 190 181 178 186 185 189 187 191 186 176 187 187 196 188 194 189 194 192
76 81 81 86 93 95 105 109 111 115 100 103 105 111 107 108 114 116 119 113 110 112 116 108 106 121 121 122 117 122 146 173 184 198 178 179 198 225 212 157 208 239 221 173 177 185 177 169 161 166 186 208 212 220 204 204 215 203 186 202 203 204 150 132 129 144 154 152 175 183 179 181 182 180 176 182 194 181 183 196 183 184 186 189 189
73 80 90 93 93 97 108 110 113 129 117 111 104 108 102 112 111 108 108 110 111 109 113 113 119 105 104 128 128 138 155 159 198 200 199 209 189 166 160 196 207 237 237 225 200 174 180 183 176 184 193 204 197 202 211 198 205 206 217 220 213 205 171 171 193 172 130 122 142 154 167 172 184 187 174 173 187 184 187 180 176 183 182 188 191
71 72 80 85 87 87 82 87 91 91 92 105 110 106 106 106 109 107 107 104 100 105 100 109 134 144 151 159 159 168 175 189 204 207 206 197 179 188 191 187 195 217 225 224 225 190 192 195 191 215 208 211 208 202 215 214 210 212 210 211 225 221 210 196 194 168 150 167 156 170 169 183 179 181 176 174 173 178 184 189 183 179 186 183 193
67 71 70 71 74 80 82 87 80 77 83 91 97 106 112 114 111 109 114 115 122 128 131 147 154 156 146 161 144 176 193 201 210 202 201 192 195 191 202 202 211 218 232 238 241 235 219 219 216 208 207 210 211 211 216 222 221 219 227 235 237 224 211 201 191 196 190 182 162 167 174 185 185 188 187 178 173 180 194 186 183 187 187 190 187